| time (UTC) | temp F | wind direction | speed MPH | gust MPH | rain 1hr in | rain 24hr in | rain mn in | humidity % | barometer mb |
| 20260906064248 | 78 | 137 | 0.0 | 0.0 | 0.00 | 0.00 | 0.00 | 85 | 1013.9 |
| 20260906063743 | 78 | 125 | 0.0 | 0.0 | 0.00 | 0.00 | 0.00 | 84 | 1013.8 |
| 20260906063238 | 78 | 146 | 0.0 | 0.0 | 0.00 | 0.00 | 0.00 | 84 | 1013.8 |
| 20260906062733 | 78 | 150 | 0.0 | 0.0 | 0.00 | 0.00 | 0.00 | 83 | 1014.0 |
| 20260906062233 | 78 | 153 | 0.0 | 0.0 | 0.00 | 0.00 | 0.00 | 83 | 1013.8 |
| 20260906061729 | 78 | 150 | 0.0 | 0.0 | 0.00 | 0.00 | 0.00 | 84 | 1013.7 |
| 20260906061225 | 78 | 143 | 0.0 | 0.0 | 0.00 | 0.00 | 0.00 | 83 | 1014.0 |
| 20260906060720 | 78 | 150 | 0.0 | 0.0 | 0.00 | 0.00 | 0.00 | 83 | 1014.1 |
| 20260906060217 | 79 | 151 | 0.0 | 0.0 | 0.00 | 0.00 | 0.00 | 82 | 1014.2 |
| 20260906055713 | 79 | 148 | 0.0 | 0.0 | 0.00 | 0.00 | 0.00 | 82 | 1013.8 |
| 20260906055208 | 79 | 141 | 0.0 | 0.0 | 0.00 | 0.00 | 0.00 | 81 | 1013.8 |
| 20260906054703 | 79 | 139 | 0.0 | 0.0 | 0.00 | 0.00 | 0.00 | 81 | 1013.9 |
| 20260906054158 | 80 | 138 | 0.0 | 0.0 | 0.00 | 0.00 | 0.00 | 80 | 1013.8 |
| 20260906053655 | 80 | 127 | 0.0 | 0.0 | 0.00 | 0.00 | 0.00 | 80 | 1013.8 |
| 20260906053149 | 80 | 145 | 0.0 | 0.0 | 0.00 | 0.00 | 0.00 | 79 | 1014.1 |
| 20260906052645 | 80 | 155 | 2.0 | 2.0 | 0.00 | 0.00 | 0.00 | 79 | 1013.8 |
| 20260906052141 | 80 | 150 | 0.0 | 0.0 | 0.00 | 0.00 | 0.00 | 79 | 1013.9 |
| 20260906051637 | 80 | 155 | 0.0 | 0.0 | 0.00 | 0.00 | 0.00 | 79 | 1013.9 |
| 20260906051137 | 80 | 141 | 3.0 | 3.0 | 0.00 | 0.00 | 0.00 | 78 | 1013.6 |
| 20260906050632 | 80 | 155 | 0.0 | 0.0 | 0.00 | 0.00 | 0.00 | 78 | 1013.8 |
| 20260906050127 | 80 | 146 | 0.0 | 2.0 | 0.00 | 0.00 | 0.00 | 78 | 1013.9 |
| 20260906045626 | 80 | 143 | 2.0 | 2.0 | 0.00 | 0.00 | 0.00 | 78 | 1013.9 |
| 20260906045121 | 80 | 148 | 0.0 | 0.0 | 0.00 | 0.00 | 0.00 | 78 | 1014.0 |
| 20260906044617 | 80 | 158 | 1.0 | 2.0 | 0.00 | 0.00 | 0.00 | 77 | 1013.8 |
| 20260906044112 | 80 | 147 | 0.0 | 2.0 | 0.00 | 0.00 | 0.00 | 77 | 1013.7 |
| 20260906043609 | 81 | 152 | 1.0 | 2.0 | 0.00 | 0.00 | 0.00 | 77 | 1013.8 |
| 20260906043105 | 81 | 155 | 0.0 | 2.0 | 0.00 | 0.00 | 0.00 | 76 | 1013.7 |
| 20260906042603 | 81 | 147 | 0.0 | 0.0 | 0.00 | 0.00 | 0.00 | 76 | 1013.6 |
| 20260906042057 | 81 | 143 | 2.0 | 2.0 | 0.00 | 0.00 | 0.00 | 76 | 1013.7 |
| 20260906041555 | 81 | 155 | 2.0 | 3.0 | 0.00 | 0.00 | 0.00 | 76 | 1013.8 |
| 20260906041049 | 81 | 146 | 1.0 | 3.0 | 0.00 | 0.00 | 0.00 | 75 | 1014.0 |
| 20260906040544 | 81 | 120 | 3.0 | 3.0 | 0.00 | 0.00 | 0.00 | 75 | 1013.8 |
| 20260906040040 | 81 | 140 | 2.0 | 3.0 | 0.00 | 0.00 | 0.00 | 75 | 1013.9 |
| 20260906035534 | 82 | 166 | 2.0 | 3.0 | 0.00 | 0.00 | 0.00 | 75 | 1013.8 |
| 20260906035030 | 82 | 142 | 2.0 | 2.0 | 0.00 | 0.00 | 0.00 | 75 | 1013.9 |
| 20260906034530 | 82 | 151 | 2.0 | 3.0 | 0.00 | 0.00 | 0.00 | 75 | 1013.8 |
| 20260906034025 | 82 | 143 | 3.0 | 5.0 | 0.00 | 0.00 | 0.00 | 74 | 1013.8 |
| 20260906033520 | 82 | 130 | 4.0 | 5.0 | 0.00 | 0.00 | 0.00 | 74 | 1013.9 |
| 20260906033016 | 82 | 138 | 5.0 | 7.0 | 0.00 | 0.00 | 0.00 | 74 | 1013.9 |
| 20260906032512 | 82 | 124 | 4.0 | 5.0 | 0.00 | 0.00 | 0.00 | 73 | 1014.0 |
| 20260906032007 | 82 | 144 | 7.0 | 9.0 | 0.00 | 0.00 | 0.00 | 73 | 1013.9 |
| 20260906031502 | 82 | 114 | 5.0 | 7.0 | 0.00 | 0.00 | 0.00 | 73 | 1013.7 |
| 20260906030957 | 82 | 120 | 7.0 | 9.0 | 0.00 | 0.00 | 0.00 | 72 | 1013.7 |
| 20260906030451 | 82 | 122 | 3.0 | 3.0 | 0.00 | 0.00 | 0.00 | 72 | 1013.6 |
| 20260906025945 | 82 | 140 | 6.0 | 7.0 | 0.00 | 0.00 | 0.00 | 72 | 1013.5 |
| 20260906025440 | 83 | 105 | 4.0 | 5.0 | 0.00 | 0.00 | 0.00 | 71 | 1013.4 |
| 20260906024939 | 83 | 146 | 7.0 | 9.0 | 0.00 | 0.00 | 0.00 | 71 | 1013.6 |
| 20260906024439 | 83 | 114 | 8.0 | 9.0 | 0.00 | 0.00 | 0.00 | 70 | 1013.2 |
| 20260906023938 | 84 | 106 | 6.0 | 7.0 | 0.00 | 0.00 | 0.00 | 70 | 1013.3 |
| 20260906023435 | 84 | 128 | 8.0 | 9.0 | 0.00 | 0.00 | 0.00 | 69 | 1013.1 |
| 20260906022930 | 84 | 108 | 11.0 | 15.0 | 0.00 | 0.00 | 0.00 | 69 | 1013.2 |
| 20260906022426 | 85 | 128 | 6.0 | 9.0 | 0.00 | 0.00 | 0.00 | 69 | 1012.9 |
| 20260906021920 | 85 | 100 | 6.0 | 9.0 | 0.00 | 0.00 | 0.00 | 69 | 1012.7 |
| 20260906021420 | 85 | 147 | 3.0 | 3.0 | 0.00 | 0.00 | 0.00 | 69 | 1012.7 |
| 20260906020915 | 85 | 123 | 6.0 | 9.0 | 0.00 | 0.00 | 0.00 | 68 | 1012.8 |
| 20260906020414 | 86 | 137 | 8.0 | 10.0 | 0.00 | 0.00 | 0.00 | 68 | 1012.6 |
| 20260906015909 | 86 | 114 | 11.0 | 15.0 | 0.00 | 0.00 | 0.00 | 68 | 1012.4 |
| 20260906015408 | 86 | 102 | 9.0 | 10.0 | 0.00 | 0.00 | 0.00 | 68 | 1012.4 |
| 20260906014903 | 86 | 104 | 9.0 | 12.0 | 0.00 | 0.00 | 0.00 | 67 | 1012.3 |
| 20260906014402 | 86 | 123 | 5.0 | 7.0 | 0.00 | 0.00 | 0.00 | 67 | 1012.3 |
| 20260906013859 | 87 | 156 | 10.0 | 12.0 | 0.00 | 0.00 | 0.00 | 66 | 1012.4 |
| 20260906013354 | 87 | 108 | 12.0 | 15.0 | 0.00 | 0.00 | 0.00 | 65 | 1012.2 |
| 20260906012849 | 88 | 100 | 9.0 | 15.0 | 0.00 | 0.00 | 0.00 | 64 | 1012.1 |
| 20260906012344 | 89 | 114 | 7.0 | 7.0 | 0.00 | 0.00 | 0.00 | 61 | 1012.2 |
| 20260906011844 | 89 | 148 | 15.0 | 19.0 | 0.00 | 0.00 | 0.00 | 60 | 1012.2 |
| 20260906011339 | 89 | 113 | 7.0 | 9.0 | 0.00 | 0.00 | 0.00 | 58 | 1011.9 |
| 20260906010835 | 89 | 116 | 9.0 | 10.0 | 0.00 | 0.00 | 0.00 | 58 | 1012.0 |
| 20260906010331 | 89 | 116 | 6.0 | 9.0 | 0.00 | 0.00 | 0.00 | 57 | 1012.0 |
| 20260906005826 | 90 | 125 | 14.0 | 17.0 | 0.00 | 0.00 | 0.00 | 57 | 1012.0 |
| 20260906005325 | 90 | 123 | 6.0 | 7.0 | 0.00 | 0.00 | 0.00 | 56 | 1012.1 |
| 20260906004824 | 90 | 122 | 12.0 | 14.0 | 0.00 | 0.00 | 0.00 | 56 | 1012.1 |
| 20260906004319 | 91 | 119 | 9.0 | 10.0 | 0.00 | 0.00 | 0.00 | 55 | 1012.1 |
| 20260906003814 | 91 | 116 | 12.0 | 15.0 | 0.00 | 0.00 | 0.00 | 54 | 1012.0 |
| 20260906003309 | 91 | 140 | 11.0 | 15.0 | 0.00 | 0.00 | 0.00 | 54 | 1012.0 |
| 20260906002805 | 91 | 87 | 11.0 | 12.0 | 0.00 | 0.00 | 0.00 | 54 | 1012.2 |
| 20260906002306 | 91 | 128 | 12.0 | 14.0 | 0.00 | 0.00 | 0.00 | 54 | 1011.8 |
| 20260906001800 | 92 | 129 | 6.0 | 9.0 | 0.00 | 0.00 | 0.00 | 53 | 1011.8 |
| 20260906001300 | 92 | 103 | 14.0 | 17.0 | 0.00 | 0.00 | 0.00 | 53 | 1011.9 |
| 20260906000755 | 92 | 111 | 13.0 | 17.0 | 0.00 | 0.00 | 0.00 | 53 | 1011.9 |
| 20260906000249 | 93 | 97 | 18.0 | 26.0 | 0.00 | 0.00 | 0.00 | 53 | 1011.8 |
| 20260905235744 | 93 | 99 | 9.0 | 12.0 | 0.00 | 0.00 | 0.00 | 53 | 1011.9 |
| 20260905235244 | 93 | 131 | 14.0 | 17.0 | 0.00 | 0.00 | 0.00 | 53 | 1011.9 |
| 20260905234740 | 93 | 109 | 11.0 | 14.0 | 0.00 | 0.00 | 0.00 | 52 | 1011.8 |
| 20260905234235 | 94 | 121 | 4.0 | 7.0 | 0.00 | 0.00 | 0.00 | 51 | 1011.7 |
| 20260905233730 | 94 | 122 | 11.0 | 14.0 | 0.00 | 0.00 | 0.00 | 50 | 1011.5 |
| 20260905233229 | 94 | 139 | 3.0 | 3.0 | 0.00 | 0.00 | 0.00 | 51 | 1011.5 |
| 20260905232724 | 94 | 132 | 9.0 | 12.0 | 0.00 | 0.00 | 0.00 | 50 | 1011.6 |
| 20260905232220 | 94 | 95 | 8.0 | 12.0 | 0.00 | 0.00 | 0.00 | 50 | 1011.4 |
| 20260905231716 | 94 | 132 | 7.0 | 12.0 | 0.00 | 0.00 | 0.00 | 50 | 1011.6 |
| 20260905231211 | 94 | 142 | 9.0 | 12.0 | 0.00 | 0.00 | 0.00 | 51 | 1011.4 |
| 20260905230708 | 94 | 121 | 11.0 | 14.0 | 0.00 | 0.00 | 0.00 | 51 | 1011.3 |
| 20260905230205 | 95 | 125 | 7.0 | 9.0 | 0.00 | 0.00 | 0.00 | 50 | 1011.4 |
| 20260905225704 | 95 | 112 | 7.0 | 9.0 | 0.00 | 0.00 | 0.00 | 50 | 1011.4 |
| 20260905225200 | 95 | 132 | 7.0 | 10.0 | 0.00 | 0.00 | 0.00 | 51 | 1011.6 |
| 20260905224659 | 95 | 135 | 7.0 | 9.0 | 0.00 | 0.00 | 0.00 | 51 | 1011.4 |
| 20260905224154 | 95 | 129 | 6.0 | 7.0 | 0.00 | 0.00 | 0.00 | 50 | 1011.6 |
| 20260905223651 | 95 | 112 | 10.0 | 12.0 | 0.00 | 0.00 | 0.00 | 50 | 1011.4 |
| 20260905223147 | 96 | 124 | 10.0 | 12.0 | 0.00 | 0.00 | 0.00 | 50 | 1011.3 |
| 20260905222642 | 97 | 130 | 2.0 | 3.0 | 0.00 | 0.00 | 0.00 | 49 | 1011.5 |
| 20260905222137 | 97 | 121 | 8.0 | 10.0 | 0.00 | 0.00 | 0.00 | 50 | 1011.3 |
| 20260905221633 | 98 | 119 | 6.0 | 9.0 | 0.00 | 0.00 | 0.00 | 49 | 1011.2 |
| 20260905221129 | 98 | 99 | 5.0 | 7.0 | 0.00 | 0.00 | 0.00 | 47 | 1011.2 |
| 20260905220625 | 96 | 137 | 3.0 | 3.0 | 0.00 | 0.00 | 0.00 | 49 | 1011.3 |
| 20260905220121 | 96 | 127 | 2.0 | 3.0 | 0.00 | 0.00 | 0.00 | 49 | 1011.2 |
| 20260905215620 | 96 | 28 | 4.0 | 5.0 | 0.00 | 0.00 | 0.00 | 48 | 1011.2 |
| 20260905215116 | 95 | 145 | 1.0 | 2.0 | 0.00 | 0.00 | 0.00 | 49 | 1011.3 |
| 20260905214612 | 95 | 133 | 9.0 | 12.0 | 0.00 | 0.00 | 0.00 | 49 | 1011.1 |
| 20260905214111 | 96 | 123 | 5.0 | 7.0 | 0.00 | 0.00 | 0.00 | 50 | 1011.2 |
| 20260905213607 | 97 | 163 | 11.0 | 14.0 | 0.00 | 0.00 | 0.00 | 48 | 1011.3 |
| 20260905213102 | 97 | 113 | 2.0 | 3.0 | 0.00 | 0.00 | 0.00 | 48 | 1011.2 |
| 20260905212557 | 99 | 119 | 9.0 | 10.0 | 0.00 | 0.00 | 0.00 | 47 | 1011.2 |
| 20260905212057 | 101 | 169 | 7.0 | 9.0 | 0.00 | 0.00 | 0.00 | 45 | 1011.4 |
| 20260905211552 | 101 | 121 | 5.0 | 5.0 | 0.00 | 0.00 | 0.00 | 45 | 1011.4 |
| 20260905211048 | 101 | 140 | 5.0 | 7.0 | 0.00 | 0.00 | 0.00 | 44 | 1011.6 |
| 20260905210543 | 100 | 102 | 9.0 | 12.0 | 0.00 | 0.00 | 0.00 | 45 | 1011.6 |
| 20260905210038 | 100 | 165 | 9.0 | 10.0 | 0.00 | 0.00 | 0.00 | 41 | 1011.5 |
| 20260905205537 | 100 | 190 | 4.0 | 5.0 | 0.00 | 0.00 | 0.00 | 41 | 1011.6 |
| 20260905205036 | 101 | 152 | 6.0 | 9.0 | 0.00 | 0.00 | 0.00 | 41 | 1011.8 |
| 20260905204531 | 102 | 146 | 6.0 | 7.0 | 0.00 | 0.00 | 0.00 | 42 | 1011.8 |
| 20260905204026 | 102 | 86 | 0.0 | 2.0 | 0.00 | 0.00 | 0.00 | 40 | 1012.0 |
| 20260905203526 | 100 | 159 | 0.0 | 0.0 | 0.00 | 0.00 | 0.00 | 43 | 1012.1 |
| 20260905203021 | 99 | 135 | 3.0 | 3.0 | 0.00 | 0.00 | 0.00 | 44 | 1012.2 |
| 20260905202516 | 100 | 148 | 6.0 | 9.0 | 0.00 | 0.00 | 0.00 | 44 | 1012.1 |
| 20260905202012 | 100 | 151 | 3.0 | 3.0 | 0.00 | 0.00 | 0.00 | 44 | 1012.1 |
| 20260905201508 | 99 | 156 | 0.0 | 2.0 | 0.00 | 0.00 | 0.00 | 44 | 1012.4 |
| 20260905201007 | 99 | 125 | 4.0 | 5.0 | 0.00 | 0.00 | 0.00 | 45 | 1012.1 |
| 20260905200503 | 99 | 144 | 2.0 | 5.0 | 0.00 | 0.00 | 0.00 | 45 | 1012.4 |
| 20260905200001 | 99 | 169 | 2.0 | 3.0 | 0.00 | 0.00 | 0.00 | 44 | 1012.4 |
| 20260905195456 | 98 | 117 | 5.0 | 9.0 | 0.00 | 0.00 | 0.00 | 47 | 1012.5 |
| 20260905194952 | 99 | 162 | 2.0 | 5.0 | 0.00 | 0.00 | 0.00 | 45 | 1012.7 |
| 20260905194451 | 99 | 210 | 5.0 | 9.0 | 0.00 | 0.00 | 0.00 | 45 | 1012.6 |
| 20260905193946 | 100 | 180 | 4.0 | 5.0 | 0.00 | 0.00 | 0.00 | 45 | 1012.6 |
| 20260905193446 | 100 | 203 | 2.0 | 3.0 | 0.00 | 0.00 | 0.00 | 44 | 1013.0 |
| 20260905192942 | 100 | 155 | 2.0 | 3.0 | 0.00 | 0.00 | 0.00 | 45 | 1012.9 |
| 20260905192437 | 99 | 174 | 6.0 | 7.0 | 0.00 | 0.00 | 0.00 | 45 | 1013.1 |
| 20260905191932 | 99 | 349 | 3.0 | 7.0 | 0.00 | 0.00 | 0.00 | 44 | 1013.0 |
| 20260905191431 | 100 | 209 | 7.0 | 12.0 | 0.00 | 0.00 | 0.00 | 43 | 1013.2 |
| 20260905190925 | 100 | 161 | 2.0 | 3.0 | 0.00 | 0.00 | 0.00 | 44 | 1013.3 |
| 20260905190423 | 99 | 148 | 2.0 | 2.0 | 0.00 | 0.00 | 0.00 | 45 | 1013.3 |
| 20260905185922 | 97 | 130 | 0.0 | 0.0 | 0.00 | 0.00 | 0.00 | 47 | 1013.5 |
| 20260905185417 | 98 | 156 | 0.0 | 2.0 | 0.00 | 0.00 | 0.00 | 47 | 1013.5 |
| 20260905184916 | 97 | 141 | 2.0 | 3.0 | 0.00 | 0.00 | 0.00 | 48 | 1013.6 |
| 20260905184411 | 97 | 159 | 1.0 | 2.0 | 0.00 | 0.00 | 0.00 | 47 | 1013.7 |
| 20260905183909 | 97 | 167 | 0.0 | 0.0 | 0.00 | 0.00 | 0.00 | 45 | 1013.7 |
| 20260905183404 | 97 | 159 | 3.0 | 5.0 | 0.00 | 0.00 | 0.00 | 47 | 1013.7 |
| 20260905182859 | 99 | 133 | 3.0 | 3.0 | 0.00 | 0.00 | 0.00 | 45 | 1014.0 |
| 20260905182353 | 98 | 161 | 3.0 | 3.0 | 0.00 | 0.00 | 0.00 | 46 | 1013.9 |
| 20260905181849 | 97 | 178 | 6.0 | 9.0 | 0.00 | 0.00 | 0.00 | 48 | 1013.9 |
| 20260905181348 | 96 | 181 | 3.0 | 3.0 | 0.00 | 0.00 | 0.00 | 49 | 1014.2 |
| 20260905180847 | 96 | 170 | 6.0 | 7.0 | 0.00 | 0.00 | 0.00 | 48 | 1014.5 |
| 20260905180342 | 96 | 121 | 6.0 | 7.0 | 0.00 | 0.00 | 0.00 | 50 | 1014.4 |
| 20260905175837 | 96 | 182 | 5.0 | 7.0 | 0.00 | 0.00 | 0.00 | 49 | 1014.9 |
| 20260905175331 | 95 | 188 | 4.0 | 5.0 | 0.00 | 0.00 | 0.00 | 51 | 1014.8 |
| 20260905174826 | 95 | 117 | 2.0 | 3.0 | 0.00 | 0.00 | 0.00 | 52 | 1014.6 |
| 20260905174322 | 95 | 107 | 9.0 | 10.0 | 0.00 | 0.00 | 0.00 | 52 | 1014.9 |
| 20260905173818 | 95 | 172 | 5.0 | 9.0 | 0.00 | 0.00 | 0.00 | 50 | 1014.9 |
| 20260905173314 | 96 | 217 | 5.0 | 7.0 | 0.00 | 0.00 | 0.00 | 51 | 1015.0 |
| 20260905172814 | 94 | 149 | 0.0 | 0.0 | 0.00 | 0.00 | 0.00 | 55 | 1014.9 |
| 20260905172312 | 94 | 172 | 3.0 | 5.0 | 0.00 | 0.00 | 0.00 | 57 | 1015.2 |
| 20260905171808 | 93 | 233 | 6.0 | 9.0 | 0.00 | 0.00 | 0.00 | 57 | 1015.3 |
| 20260905171305 | 93 | 221 | 7.0 | 9.0 | 0.00 | 0.00 | 0.00 | 56 | 1015.4 |
| 20260905170801 | 94 | 149 | 4.0 | 5.0 | 0.00 | 0.00 | 0.00 | 56 | 1015.3 |
| 20260905170256 | 93 | 151 | 2.0 | 2.0 | 0.00 | 0.00 | 0.00 | 56 | 1015.4 |
| 20260905165755 | 91 | 213 | 6.0 | 7.0 | 0.00 | 0.00 | 0.00 | 58 | 1015.5 |
| 20260905165251 | 91 | 150 | 0.0 | 0.0 | 0.00 | 0.00 | 0.00 | 60 | 1015.6 |
| 20260905164745 | 92 | 209 | 4.0 | 5.0 | 0.00 | 0.00 | 0.00 | 59 | 1015.5 |
| 20260905164240 | 93 | 188 | 7.0 | 10.0 | 0.00 | 0.00 | 0.00 | 56 | 1015.6 |
| 20260905163736 | 94 | 149 | 2.0 | 2.0 | 0.00 | 0.00 | 0.00 | 56 | 1015.5 |
| 20260905163233 | 93 | 186 | 3.0 | 3.0 | 0.00 | 0.00 | 0.00 | 56 | 1015.6 |
| 20260905162728 | 92 | 181 | 4.0 | 7.0 | 0.00 | 0.00 | 0.00 | 59 | 1015.5 |
| 20260905162227 | 93 | 199 | 4.0 | 5.0 | 0.00 | 0.00 | 0.00 | 60 | 1015.6 |
| 20260905161723 | 92 | 128 | 3.0 | 3.0 | 0.00 | 0.00 | 0.00 | 60 | 1015.6 |
| 20260905161221 | 92 | 144 | 2.0 | 3.0 | 0.00 | 0.00 | 0.00 | 61 | 1015.4 |
| 20260905160720 | 91 | 141 | 5.0 | 5.0 | 0.00 | 0.00 | 0.00 | 63 | 1015.4 |
| 20260905160219 | 91 | 189 | 5.0 | 7.0 | 0.00 | 0.00 | 0.00 | 64 | 1015.3 |
| 20260905155714 | 90 | 172 | 5.0 | 9.0 | 0.00 | 0.00 | 0.00 | 63 | 1015.4 |
| 20260905155213 | 92 | 213 | 5.0 | 7.0 | 0.00 | 0.00 | 0.00 | 63 | 1015.5 |
| 20260905154707 | 91 | 138 | 3.0 | 3.0 | 0.00 | 0.00 | 0.00 | 65 | 1015.7 |
| 20260905154203 | 89 | 149 | 2.0 | 3.0 | 0.00 | 0.00 | 0.00 | 69 | 1015.5 |
| 20260905153659 | 89 | 186 | 7.0 | 10.0 | 0.00 | 0.00 | 0.00 | 69 | 1015.7 |
| 20260905153154 | 89 | 182 | 3.0 | 5.0 | 0.00 | 0.00 | 0.00 | 72 | 1015.4 |
| 20260905152649 | 88 | 163 | 3.0 | 5.0 | 0.00 | 0.00 | 0.00 | 72 | 1015.5 |
| 20260905152143 | 87 | 190 | 5.0 | 7.0 | 0.00 | 0.00 | 0.00 | 76 | 1015.5 |
| 20260905151638 | 87 | 174 | 2.0 | 3.0 | 0.00 | 0.00 | 0.00 | 76 | 1015.6 |
| 20260905151134 | 86 | 216 | 5.0 | 7.0 | 0.00 | 0.00 | 0.00 | 77 | 1015.5 |
| 20260905150629 | 86 | 191 | 5.0 | 9.0 | 0.00 | 0.00 | 0.00 | 78 | 1015.5 |
| 20260905150127 | 87 | 259 | 5.0 | 7.0 | 0.00 | 0.00 | 0.00 | 76 | 1015.7 |
| 20260905145621 | 86 | 150 | 3.0 | 3.0 | 0.00 | 0.00 | 0.00 | 77 | 1015.7 |
| 20260905145120 | 85 | 173 | 2.0 | 3.0 | 0.00 | 0.00 | 0.00 | 81 | 1015.6 |
| 20260905144620 | 85 | 204 | 6.0 | 7.0 | 0.00 | 0.00 | 0.00 | 80 | 1015.6 |
| 20260905144119 | 84 | 159 | 2.0 | 3.0 | 0.00 | 0.00 | 0.00 | 82 | 1015.6 |
| 20260905143614 | 84 | 220 | 5.0 | 7.0 | 0.00 | 0.00 | 0.00 | 83 | 1015.6 |
| 20260905143109 | 84 | 211 | 6.0 | 7.0 | 0.00 | 0.00 | 0.00 | 82 | 1015.5 |
| 20260905142608 | 85 | 161 | 3.0 | 3.0 | 0.00 | 0.00 | 0.00 | 81 | 1015.5 |
| 20260905142107 | 84 | 146 | 3.0 | 3.0 | 0.00 | 0.00 | 0.00 | 81 | 1015.4 |
| 20260905141607 | 84 | 174 | 4.0 | 5.0 | 0.00 | 0.00 | 0.00 | 82 | 1015.5 |
| 20260905141104 | 84 | 152 | 2.0 | 3.0 | 0.00 | 0.00 | 0.00 | 83 | 1015.5 |
| 20260905140559 | 84 | 147 | 0.0 | 0.0 | 0.00 | 0.00 | 0.00 | 82 | 1015.6 |
| 20260905140057 | 83 | 152 | 0.0 | 0.0 | 0.00 | 0.00 | 0.00 | 83 | 1015.6 |
| 20260905135553 | 83 | 135 | 1.0 | 2.0 | 0.00 | 0.00 | 0.00 | 83 | 1015.6 |
| 20260905135053 | 82 | 153 | 0.0 | 0.0 | 0.00 | 0.00 | 0.00 | 86 | 1015.5 |
| 20260905134548 | 82 | 157 | 0.0 | 0.0 | 0.00 | 0.00 | 0.00 | 85 | 1015.4 |
| 20260905134047 | 80 | 150 | 0.0 | 0.0 | 0.00 | 0.00 | 0.00 | 88 | 1015.2 |
| 20260905133542 | 80 | 137 | 2.0 | 3.0 | 0.00 | 0.00 | 0.00 | 89 | 1015.3 |
| 20260905133042 | 79 | 157 | 0.0 | 0.0 | 0.00 | 0.00 | 0.00 | 89 | 1015.1 |
| 20260905132536 | 78 | 149 | 2.0 | 3.0 | 0.00 | 0.00 | 0.00 | 91 | 1015.2 |
| 20260905132031 | 78 | 126 | 2.0 | 3.0 | 0.00 | 0.00 | 0.00 | 92 | 1015.1 |
| 20260905131526 | 77 | 134 | 4.0 | 5.0 | 0.00 | 0.00 | 0.00 | 93 | 1015.0 |
| 20260905131022 | 77 | 143 | 0.0 | 0.0 | 0.00 | 0.00 | 0.00 | 94 | 1015.1 |
| 20260905130520 | 77 | 152 | 0.0 | 0.0 | 0.00 | 0.00 | 0.00 | 95 | 1015.2 |
| 20260905130011 | 76 | 151 | 0.0 | 0.0 | 0.00 | 0.00 | 0.00 | 96 | 1014.9 |
| 20260905125505 | 75 | 149 | 0.0 | 0.0 | 0.00 | 0.00 | 0.00 | 97 | 1014.9 |
| 20260905125000 | 75 | 150 | 0.0 | 0.0 | 0.00 | 0.00 | 0.00 | 98 | 1014.7 |
| 20260905124457 | 74 | 141 | 2.0 | 2.0 | 0.00 | 0.00 | 0.00 | 98 | 1014.8 |
| 20260905123953 | 74 | 126 | 0.0 | 0.0 | 0.00 | 0.00 | 0.00 | 98 | 1014.8 |
| 20260905123449 | 74 | 135 | 0.0 | 0.0 | 0.00 | 0.00 | 0.00 | 98 | 1014.9 |
| 20260905122949 | 74 | 151 | 0.0 | 0.0 | 0.00 | 0.00 | 0.00 | 98 | 1014.9 |
| 20260905122448 | 74 | 133 | 0.0 | 0.0 | 0.00 | 0.00 | 0.00 | 98 | 1014.5 |
| 20260905121938 | 73 | 141 | 0.0 | 0.0 | 0.00 | 0.00 | 0.00 | 98 | 1014.7 |
| 20260905121433 | 73 | 153 | 0.0 | 0.0 | 0.00 | 0.00 | 0.00 | 98 | 1014.6 |
| 20260905120932 | 73 | 155 | 0.0 | 0.0 | 0.00 | 0.00 | 0.00 | 98 | 1014.4 |
| 20260905120427 | 73 | 150 | 0.0 | 0.0 | 0.00 | 0.00 | 0.00 | 98 | 1014.4 |
| 20260905115922 | 73 | 145 | 0.0 | 0.0 | 0.00 | 0.00 | 0.00 | 98 | 1014.3 |
| 20260905115421 | 73 | 143 | 0.0 | 0.0 | 0.00 | 0.00 | 0.00 | 98 | 1014.2 |
| 20260905114916 | 73 | 149 | 0.0 | 0.0 | 0.00 | 0.00 | 0.00 | 97 | 1014.5 |
| 20260905114410 | 73 | 151 | 0.0 | 0.0 | 0.00 | 0.00 | 0.00 | 97 | 1014.3 |
| 20260905113904 | 73 | 151 | 0.0 | 0.0 | 0.00 | 0.00 | 0.00 | 97 | 1014.2 |
| 20260905113359 | 73 | 151 | 0.0 | 0.0 | 0.00 | 0.00 | 0.00 | 97 | 1014.4 |
| 20260905112855 | 73 | 144 | 0.0 | 0.0 | 0.00 | 0.00 | 0.00 | 97 | 1014.1 |
| 20260905112350 | 73 | 140 | 0.0 | 0.0 | 0.00 | 0.00 | 0.00 | 97 | 1014.1 |
| 20260905111844 | 73 | 139 | 0.0 | 0.0 | 0.00 | 0.00 | 0.00 | 97 | 1014.1 |
| 20260905111339 | 73 | 152 | 0.0 | 0.0 | 0.00 | 0.00 | 0.00 | 97 | 1014.3 |
| 20260905110838 | 73 | 149 | 0.0 | 0.0 | 0.00 | 0.00 | 0.00 | 97 | 1014.2 |
| 20260905110332 | 73 | 144 | 0.0 | 0.0 | 0.00 | 0.00 | 0.00 | 97 | 1014.2 |
| 20260905105828 | 74 | 147 | 0.0 | 0.0 | 0.00 | 0.00 | 0.00 | 97 | 1014.2 |
| 20260905105327 | 74 | 146 | 0.0 | 0.0 | 0.00 | 0.00 | 0.00 | 97 | 1014.1 |
| 20260905104826 | 74 | 148 | 0.0 | 0.0 | 0.00 | 0.00 | 0.00 | 97 | 1014.2 |
| 20260905104323 | 73 | 148 | 0.0 | 0.0 | 0.00 | 0.00 | 0.00 | 96 | 1014.1 |
| 20260905103822 | 74 | 148 | 0.0 | 0.0 | 0.00 | 0.00 | 0.00 | 96 | 1014.2 |
| 20260905103318 | 74 | 145 | 0.0 | 0.0 | 0.00 | 0.00 | 0.00 | 96 | 1013.8 |
| 20260905102814 | 74 | 147 | 0.0 | 0.0 | 0.00 | 0.00 | 0.00 | 96 | 1013.9 |
| 20260905102310 | 74 | 145 | 0.0 | 0.0 | 0.00 | 0.00 | 0.00 | 96 | 1013.8 |
| 20260905101810 | 74 | 147 | 0.0 | 0.0 | 0.00 | 0.00 | 0.00 | 96 | 1013.9 |
| 20260905101308 | 74 | 146 | 0.0 | 0.0 | 0.00 | 0.00 | 0.00 | 96 | 1013.9 |
| 20260905100803 | 74 | 146 | 0.0 | 0.0 | 0.00 | 0.00 | 0.00 | 96 | 1013.9 |
| 20260905100300 | 74 | 146 | 0.0 | 0.0 | 0.00 | 0.00 | 0.00 | 96 | 1013.9 |
| 20260905095759 | 74 | 145 | 0.0 | 0.0 | 0.00 | 0.00 | 0.00 | 96 | 1014.1 |
| 20260905095258 | 74 | 142 | 0.0 | 0.0 | 0.00 | 0.00 | 0.00 | 96 | 1013.9 |
| 20260905094753 | 74 | 143 | 0.0 | 0.0 | 0.00 | 0.00 | 0.00 | 96 | 1014.1 |
| 20260905094249 | 74 | 137 | 0.0 | 0.0 | 0.00 | 0.00 | 0.00 | 96 | 1014.1 |
| 20260905093748 | 75 | 142 | 0.0 | 0.0 | 0.00 | 0.00 | 0.00 | 95 | 1014.0 |
| 20260905093244 | 75 | 142 | 0.0 | 0.0 | 0.00 | 0.00 | 0.00 | 95 | 1014.0 |
| 20260905092739 | 75 | 146 | 0.0 | 0.0 | 0.00 | 0.00 | 0.00 | 95 | 1014.0 |
| 20260905092235 | 75 | 140 | 0.0 | 0.0 | 0.00 | 0.00 | 0.00 | 95 | 1013.8 |
| 20260905091734 | 75 | 138 | 0.0 | 0.0 | 0.00 | 0.00 | 0.00 | 95 | 1014.0 |
| 20260905091229 | 75 | 145 | 0.0 | 0.0 | 0.00 | 0.00 | 0.00 | 94 | 1014.2 |
| 20260905090728 | 75 | 144 | 0.0 | 0.0 | 0.00 | 0.00 | 0.00 | 94 | 1014.0 |
| 20260905090224 | 75 | 147 | 0.0 | 0.0 | 0.00 | 0.00 | 0.00 | 94 | 1014.0 |
| 20260905085723 | 75 | 148 | 0.0 | 0.0 | 0.00 | 0.00 | 0.00 | 94 | 1014.0 |
| 20260905085218 | 75 | 148 | 0.0 | 0.0 | 0.00 | 0.00 | 0.00 | 95 | 1014.1 |
| 20260905084718 | 75 | 151 | 0.0 | 0.0 | 0.00 | 0.00 | 0.00 | 95 | 1013.9 |
| 20260905084218 | 75 | 153 | 0.0 | 0.0 | 0.00 | 0.00 | 0.00 | 94 | 1013.9 |
| 20260905083714 | 74 | 153 | 0.0 | 0.0 | 0.00 | 0.00 | 0.00 | 93 | 1013.8 |
| 20260905083209 | 75 | 153 | 0.0 | 0.0 | 0.00 | 0.00 | 0.00 | 93 | 1013.8 |
| 20260905082705 | 75 | 153 | 0.0 | 0.0 | 0.00 | 0.00 | 0.00 | 93 | 1013.8 |
| 20260905082201 | 75 | 153 | 0.0 | 0.0 | 0.00 | 0.00 | 0.00 | 93 | 1014.0 |
| 20260905081700 | 76 | 157 | 0.0 | 0.0 | 0.00 | 0.00 | 0.00 | 93 | 1013.9 |
| 20260905081155 | 76 | 156 | 0.0 | 0.0 | 0.00 | 0.00 | 0.00 | 93 | 1014.0 |
| 20260905080650 | 76 | 154 | 0.0 | 0.0 | 0.00 | 0.00 | 0.00 | 93 | 1013.9 |
| 20260905080150 | 75 | 149 | 0.0 | 0.0 | 0.00 | 0.00 | 0.00 | 93 | 1014.0 |
| 20260905075649 | 75 | 148 | 0.0 | 0.0 | 0.00 | 0.00 | 0.00 | 93 | 1013.9 |
| 20260905075148 | 75 | 151 | 0.0 | 0.0 | 0.00 | 0.00 | 0.00 | 93 | 1013.9 |
| 20260905074647 | 75 | 146 | 0.0 | 0.0 | 0.00 | 0.00 | 0.00 | 94 | 1013.8 |
| 20260905074143 | 75 | 137 | 0.0 | 0.0 | 0.00 | 0.00 | 0.00 | 94 | 1013.8 |
| 20260905073639 | 75 | 153 | 0.0 | 0.0 | 0.00 | 0.00 | 0.00 | 94 | 1014.0 |
| 20260905073134 | 75 | 152 | 0.0 | 0.0 | 0.00 | 0.00 | 0.00 | 94 | 1014.0 |
| 20260905072633 | 75 | 150 | 0.0 | 0.0 | 0.00 | 0.00 | 0.00 | 94 | 1014.1 |
| 20260905072129 | 75 | 155 | 0.0 | 0.0 | 0.00 | 0.00 | 0.00 | 95 | 1014.0 |
| 20260905071625 | 75 | 151 | 0.0 | 0.0 | 0.00 | 0.00 | 0.00 | 94 | 1014.2 |
| 20260905071120 | 75 | 151 | 0.0 | 0.0 | 0.00 | 0.00 | 0.00 | 94 | 1014.2 |
| 20260905070616 | 75 | 151 | 0.0 | 0.0 | 0.00 | 0.00 | 0.00 | 94 | 1014.3 |
| 20260905070112 | 75 | 151 | 0.0 | 0.0 | 0.00 | 0.00 | 0.00 | 94 | 1014.2 |
| 20260905065610 | 75 | 151 | 0.0 | 0.0 | 0.00 | 0.00 | 0.00 | 94 | 1014.2 |
| 20260905065104 | 75 | 151 | 0.0 | 0.0 | 0.00 | 0.00 | 0.00 | 94 | 1014.5 |